STARLINK-31959, 59925

Orbit data source: Space-Track

STARLINK-31959, 59925 is a payload satellite owned by SpaceX/Seattle (US) in LEO that was launched on Sat, 01 Jun 2024 UTC via an FALCON 9 launch vehicle from the Air Force Eastern Test Range (AFETR). Payload-class satellites include a variety of spacecraft equipped with specific instruments for various scientific and technological missions. These include communications satellites like Starlink; space stations such as the ISS; scientific satellites like the Hubble; Earth observation satellites from companies like Planet Labs, Umbra, and HawkEye 360; GPS; miniature CubeSats for education and research; and military/defense satellites.

Loading next visibility...
Identifier
59925, 2024-106D
Orbit
LEO
Country
Flag of USUS
Related business
Manufacturer
SpaceX/Seattle
Mission
Operational Commercial Communications
Bus & Motor
STARLINK V2M, Unknown motor
Mass
730 kg wet, ~700 kg dry
Launch date (UTC)
2024-06-01 (2 years ago)
Launch vehicle
FALCON 9
Launch site
Air Force Eastern Test Range (AFETR)
Object type
Payload
Rocket body
Debris
Shape & HBR
Box + 2 Pan, 17.7 m
Radar Cross Section
33.884 m², Large (>1 m²)

Expand to show TLE details & history
Last TLE update: 11 hours ago

TLE from 11 hours ago
0 STARLINK-31959
1 59925U 24106D   26105.09265690 -.00000101  00000-0  58525-5 0  9997
2 59925  43.0032 123.0993 0001038 269.0299  91.0434 15.27575500106139
Epoch: 2026-04-15T02:13Z
TLE epoch observation values (Epoch: 2026-04-15T02:13:25.556Z)
Latitude
0.00001°
Longitude
-113.51668°
Altitude
482.851 km
Speed
7.626 km/s
True Right ascension
08h 12m 23s
True Declination
0° 00' 00"
Sunlit
Object was in daylight at epoch
Visualization orbit readout
Latitude
Unknown
Longitude
Unknown
Altitude
Unknown
Speed
Unknown
Apparent Right ascension
Unknown
Apparent Declination
Unknown
Sunlit
N/A
Visualization observer readout
Local Sidereal Time
19:37:18
Azimuth
Unknown
Elevation
Unknown
Doppler factor
Unknown
Orbital elements
Apogee altitude
485.72 km
Perigee altitude
484.295 km
Semi-major axis
6,863.144 km
Eccentricity
0.0001
Inclination
43.0032°
RAAN
123.0993°
Arg. of periapsis
269.0299°
True anomaly
91.05529°
Mean anomaly
91.0434°
Eccentric anomaly
91.04935°
Mean motion
3.81732 °/min
Orbital period
94.31 mins
BSTAR
0.0000058525
Loading maneuver chart data...
Computing Atmospheric mass density...
Loading historical data...
Loading historical data...
Loading historical data...
Loading historical data...
Loading historical data...
Loading historical data...
Loading historical data...

Documentation

Showing up to 5 results
|